Meath Environmental Platform

Observations

Time Sensor AQI SAQ Temp °C Hum % Pres Pa CO μg/m³ H₂S μg/m³ NO μg/m³ NO₂ μg/m³ O₃ μg/m³ SO₂ μg/m³ CO₂e PPM VOC PPM PM1 μg/m³ PM2.5 μg/m³ PM4 μg/m³ PM10 μg/m³ TPS µm
Thursday 13 August 2026
10:15 Trim Market St 2 28 56 57,727 0 0 0.63 13.53 59.41 0 1.43 3.69 4.7
10:15 Trim Patrick St 1 28.8 54 71,179 0 1.46 0.83 13.66 59.76 13.52 3.71 8.41 9.25
10:14 Trim Market St 2 28 56 57,728 0 0 0.64 13.47 56.42 0 1.43 3.19 3.99
10:14 Trim Patrick St 1 28.8 54 71,112 0 0.39 0.8 13.5 60 13.97 3.71 8.42 9.26
10:13 Trim Market St 2 28 56 57,732 0 0 0.65 13.49 56.9 0 1.43 4.21 5.4
10:13 Trim Patrick St 1 28.8 54 71,054 0 0 0.89 13.37 59.08 13.33 4.57 9.19 10.11
10:12 Trim Market St 2 28 56 57,734 0 0 0.67 13.44 58.2 0 1.43 3.71 5.4
10:12 Trim Patrick St 1 28.8 54 71,014 0 0 0.8 13.06 59.52 13.84 2.86 7.68 8.45
10:11 Trim Market St 2 28 56 57,737 0 0 0.66 13.56 49.43 0 0.71 2.2 3.27
10:11 Trim Patrick St 1 28.8 54 70,963 0 0 0.81 13.05 59.37 13.78 2 6.93 7.62
10:10 Trim Market St 2 28 56 57,739 0 0 0.7 13.45 64.6 0 1.43 3.21 3.98
10:10 Trim Patrick St 1 28.8 54 70,918 0 0 0.8 13.47 58.1 13.17 3.71 8.45 9.29
10:09 Trim Patrick St 1 28.9 54 70,795 0 0 0.82 13.53 59.24 13.58 2.86 6.95 7.64
10:08 Trim Patrick St 1 28.9 53 70,704 0 0 0.83 13.32 58.33 13.48 2 6.96 7.65
10:07 Trim Patrick St 1 28.9 53 70,633 0 0 0.89 12.37 57.32 13.65 2 6.97 7.66
10:07 Trim Market St 2 28.1 56 57,746 0 0 0.71 13.41 56.32 0 0.71 2.72 3.25
10:06 Trim Patrick St 1 28.9 53 70,604 0 0 0.89 12.98 58.24 12.96 2.86 7.73 8.5
10:06 Trim Market St 2 28.1 56 57,745 0 0 0.69 13.56 57.85 0 0.71 2.22 2.54
10:05 Trim Patrick St 1 28.9 53 70,504 0 0 0.92 12.39 57.45 13.29 3.71 8.5 9.34
10:04 Trim Patrick St 1 28.9 53 70,490 0 0 0.91 11.69 56.04 12.67 3.71 8.51 9.36